This is the latest recevied weather packets stored in our database for station/object F5ZQC-13. If no packets are shown the sender has not sent any weather packets the latest 1 day(s).
| Time | Temp. | Humidity | Pressure | Rain* | Wind** | Luminosity | Snow |
|---|---|---|---|---|---|---|---|
| 1778008749 | 12.22° C | 56% | 1010 hPa | 0 mm | 0.89 m/s, 337° | - | - |
| 1778008627 | 12.22° C | 56% | 1009.7 hPa | 0 mm | 2.24 m/s, 348° | - | - |
| 1778008490 | 12.22° C | 56% | 1010.2 hPa | 0 mm | 2.24 m/s, 348° | - | - |
| 1778008367 | 12.22° C | 56% | 1010.2 hPa | 0 mm | 1.34 m/s, 225° | - | - |
| 1778008245 | 12.22° C | 56% | 1010 hPa | 0 mm | 1.34 m/s, 292° | - | - |
| 1778007634 | 12.22° C | 56% | 1009.6 hPa | 0 mm | 1.34 m/s, 292° | - | - |
| 1778007389 | 12.22° C | 56% | 1009.4 hPa | 0 mm | 1.34 m/s, 315° | - | - |
| 1778007144 | 12.22° C | 53% | 1009.8 hPa | 0 mm | 3.13 m/s, 258° | - | - |
| 1778007022 | 12.78° C | 54% | 1010 hPa | 0 mm | 2.68 m/s, 337° | - | - |
| 1778006901 | 12.78° C | 57% | 1010 hPa | 0 mm | 2.68 m/s, 292° | - | - |
| 1778006656 | 12.78° C | 57% | 1010 hPa | 0 mm | 3.13 m/s, 281° | - | - |
| 1778006533 | 12.78° C | 57% | 1010.1 hPa | 0 mm | 4.02 m/s, 337° | - | - |
| 1778006289 | 12.78° C | 56% | 1010 hPa | 0 mm | 3.58 m/s, 225° | - | - |
| 1778006044 | 12.78° C | 57% | 1009.7 hPa | 0 mm | 1.79 m/s, 315° | - | - |
| 1778005922 | 12.78° C | 57% | 1009.8 hPa | 0 mm | 1.79 m/s, 326° | - | - |
| 1778005677 | 12.78° C | 57% | 1009.5 hPa | 0 mm | 1.79 m/s, 337° | - | - |
| 1778005433 | 12.78° C | 57% | 1009.7 hPa | 0 mm | 1.79 m/s, 315° | - | - |
| 1778005310 | 12.78° C | 58% | 1009.9 hPa | 0 mm | 2.24 m/s, 315° | - | - |
| 1778005189 | 12.78° C | 57% | 1009.8 hPa | 0 mm | 1.34 m/s, 292° | - | - |
| 1778005107 | 12.78° C | 57% | 1009.7 hPa | 0 mm | 1.34 m/s, 292° | - | - |
| 1778005066 | 12.78° C | 57% | 1009.7 hPa | 0 mm | 1.34 m/s, 292° | - | - |
| 1778004944 | 12.78° C | 58% | 1009.7 hPa | 0 mm | 0.45 m/s, 337° | - | - |
| 1778004087 | 12.78° C | 56% | 1009.8 hPa | 0 mm | 1.79 m/s, 258° | - | - |
| 1778003965 | 12.78° C | 58% | 1009.9 hPa | 0 mm | 1.34 m/s, 315° | - | - |
| 1778003476 | 13.33° C | 56% | 1009.9 hPa | 0 mm | 1.34 m/s, 292° | - | - |
* Rain since midnight (hover to see other rain measurements)
** Current wind speed in m/s (hover to see current wind gust speed)